[[{"header":{"parameterUnit":"m.s-1","parameterCategory":1,"la1":30.2991,"la2":30.254,"lo1":-89.0895,"lo2":-89.0444,"dy":0.0017,"dx":0.0017,"nx":28,"ny":28,"refTime":"2024-08-07T21:00:00:Z","depth":0,"parameterNumber":2,"parameterNumberName":"U-component_of_WINDS"},"data":[0,0,0,0,0,0,0,0,0,0,0,0,0,0,0,0,0,0,0,0,0,0,0,0,0,0,0,0,0,0,0,0,0,0,0,0,0,0,0,0,0,0,0,0,0,0,0,0,0,0,0,0,0,0,0,0,0,0,2.9906,2.9906,0,2.9904,2.9904,2.9904,2.9819,2.9817,2.9815,2.9813,2.9811,2.9813,2.9815,0,0,0,0,0,0,0,0,0,0,0,0,0,2.9837,2.9839,2.9906,2.9906,2.9906,2.9904,2.9904,2.9904,2.982,2.9817,2.9815,2.9812,2.981,2.9812,2.9815,0,0,0,0,0,0,0,0,0,0,0,0,0,2.9854,2.9839,2.9906,2.9864,2.986,2.9904,2.9904,2.9904,2.982,2.9817,2.9814,2.9811,2.9809,2.9812,2.9815,2.9899,0,0,2.9824,2.9826,0,0,0,0,0,0,0,0,2.9853,2.9857,2.987,2.9867,2.9862,2.9859,2.9879,2.9902,2.9821,2.9835,2.9813,2.9809,2.9829,2.983,2.9837,2.9899,2.9899,2.9825,2.9826,2.9828,2.9829,0,0,0,0,0,0,0,2.9852,2.9856,2.9905,2.987,2.9866,2.9845,2.9844,2.9883,2.9851,2.9834,2.9828,2.9829,2.9827,2.9835,2.9837,2.9899,2.9824,2.9827,2.9829,2.983,3.0031,3.0035,0,0,0,0,0,0,2.9857,2.9856,2.9905,2.9905,2.985,2.9849,2.9847,2.9863,2.985,2.9845,2.9832,2.9825,2.9831,2.9833,2.9836,2.9934,2.9828,2.983,2.9832,3.0028,3.0032,3.0036,0,0,0,0,0,0,2.9856,2.9862,2.9905,2.9879,2.9883,2.9853,2.9872,2.9865,2.9873,2.9848,2.9842,2.9846,2.9829,2.9832,2.9885,2.9933,2.9832,2.9834,3.0023,3.0029,3.0034,3.0131,0,0,0,0,0,0,2.9854,2.9862,2.9894,2.988,2.9884,2.9954,2.9875,2.9867,2.9878,2.9869,2.986,2.9855,2.9826,2.9881,2.9888,2.9935,2.9837,3.0019,3.0026,3.0032,3.0124,3.0139,3.0153,0,0,0,0,0,2.9852,2.9921,2.9896,2.9902,2.9923,2.9957,2.9959,2.9925,2.9882,2.9914,2.9899,2.9856,2.9927,2.9887,2.9894,2.9943,3.0016,3.0024,3.0032,3.0117,3.0136,3.0153,0,0,0,0,0,0,2.994,2.9918,2.989,2.9957,2.9959,2.9942,2.9981,2.9946,2.996,2.9951,2.9908,2.9906,2.9966,2.996,2.9915,3.0025,2.9964,2.9974,3.0026,3.0044,3.0059,3.0059,2.9839,0,0,0,0,0,2.9968,2.9997,2.9976,3.0037,3.0039,3.0011,3.0024,2.9997,2.9998,2.9998,2.9986,2.9989,3.0012,3.0028,3.0047,3.0123,3.012,3.016,3.0175,3.0187,3.0196,3.0236,3.0254,3.0062,3.0062,3.0062,0,0,3.0024,3.0016,3.0037,3.0054,3.0053,3.0084,3.0012,3.0047,3.007,3.0003,3.0052,3.0044,3.0044,3.0109,3.0136,3.0105,3.0248,3.0197,3.0207,3.0209,3.0246,3.0264,3.028,3.0068,3.0067,3.0066,0,0,3.0143,3.014,3.019,3.0191,3.019,3.0171,3.0183,3.0172,3.0164,3.0213,3.0164,3.019,3.023,3.0233,3.0239,3.0361,3.0322,3.0368,3.0444,3.0484,3.0499,3.0512,3.0556,3.0572,3.0377,3.0378,3.0378,0,3.0213,3.0258,3.0221,3.026,3.027,3.0212,3.0263,3.0265,3.0271,3.0279,3.0244,3.0294,3.029,3.0355,3.0385,3.0392,3.0404,3.0369,3.05,3.0513,3.0524,3.0565,3.0582,3.0383,3.0383,3.0382,3.0381,0,3.0345,3.0377,3.0418,3.0426,3.044,3.0485,3.0455,3.0474,3.0447,3.0431,3.0482,3.0475,3.0492,3.0506,3.0479,3.0567,3.0548,3.0507,3.0445,3.0549,3.0587,3.0602,3.0391,3.0389,3.0388,3.0386,0,0,3.0518,3.0506,3.0522,3.0525,3.0521,3.0545,3.0588,3.0605,3.0623,3.0629,3.0664,3.07,3.0663,3.0671,3.0644,3.0679,3.0776,3.0634,3.0633,3.066,3.0873,3.0904,3.0922,3.0751,3.0753,3.0756,3.0873,0,3.0634,3.0706,3.0674,3.075,3.078,3.0726,3.0763,3.0765,3.0752,3.0775,3.076,3.0787,3.0736,3.074,3.0772,3.0758,3.0818,3.0749,3.0783,3.0785,3.0784,3.0942,3.0974,3.1085,3.0888,3.089,3.0892,0,3.0777,3.079,3.087,3.0861,3.0872,3.0907,3.0921,3.0944,3.0945,3.0933,3.0942,3.0908,3.095,3.0889,3.0946,3.0899,3.0912,3.0907,3.0911,3.0912,3.0844,3.0948,3.112,3.1136,3.0915,3.0913,3.0911,0,3.0896,3.0934,3.0986,3.099,3.0982,3.1007,3.1005,3.1003,3.1016,3.1028,3.1037,3.1054,3.1063,3.1078,3.1049,3.1007,3.1111,3.1047,3.1102,3.1103,3.1126,3.1125,3.1302,3.1134,3.1134,3.1134,3.1134,0,3.1028,3.1078,3.1039,3.1072,3.1127,3.109,3.1146,3.1138,3.1137,3.1167,3.1121,3.115,3.1111,3.1136,3.1114,3.1165,3.117,3.1161,3.1155,3.1165,3.1166,3.1172,3.1164,3.1138,3.1137,3.1136,3.1136,0,3.1169,3.1145,3.1199,3.1187,3.1185,3.1227,3.1216,3.1246,3.123,3.1268,3.1275,3.1251,3.1278,3.1251,3.1277,3.1262,3.1331,3.1313,3.1331,3.1326,3.1382,3.1377,3.1569,3.1592,3.1411,3.1412,3.1414,0,3.1255,3.1293,3.1285,3.1302,3.1303,3.133,3.1344,3.131,3.1325,3.1331,3.136,3.1383,3.1401,3.1447,3.1432,3.1451,3.1434,3.15,3.1436,3.1446,3.1435,3.1433,3.1437,3.1513,3.1515,3.1516,3.1518,0,3.1409,3.1396,3.1417,3.1435,3.1452,3.1464,3.1473,3.1489,3.1454,3.1474,3.1502,3.1516,3.1543,3.1567,3.1582,3.158,3.1544,3.1538,3.1552,3.1563,3.1571,3.1568,3.1366,3.1534,3.1532,3.1531,3.153,3.1529,3.1525,3.1556,3.1557,3.1582,3.1585,3.1594,3.1622,3.161,3.1633,3.1652,3.1631,3.1665,3.1666,3.1683,3.1685,3.1712,3.1684,3.1704,3.1709,3.1714,3.1722,3.1568,3.1714,3.1714,3.1713,3.1713,3.1712,0,3.1677,3.1675,3.1699,3.1713,3.1733,3.1698,3.1706,3.1725,3.1756,3.176,3.1778,3.1811,3.1835,3.1822,3.1842,3.1866,3.185,3.1873,3.187,3.187,3.1746,3.1732,3.1885,3.1885,3.1885,3.1885,3.1885,3.1885,3.1758,3.181,3.1797,3.185,3.1847,3.1881,3.1888,3.1897,3.19,3.1939,3.1959,3.195,3.1948,3.1968,3.1988,3.1984,3.1993,3.2022,3.2012,3.1896,3.1879,3.1863,3.1849,3.2025,3.2025,3.2134,3.2135,3.2136]},{"header":{"parameterUnit":"m.s-1","parameterCategory":1,"la1":30.2991,"la2":30.254,"lo1":-89.0895,"lo2":-89.0444,"dy":0.0017,"dx":0.0017,"nx":28,"ny":28,"refTime":"2024-08-07T21:00:00:Z","depth":0,"parameterNumber":3,"parameterNumberName":"V-component_of_WINDS"},"data":[0,0,0,0,0,0,0,0,0,0,0,0,0,0,0,0,0,0,0,0,0,0,0,0,0,0,0,0,0,0,0,0,0,0,0,0,0,0,0,0,0,0,0,0,0,0,0,0,0,0,0,0,0,0,0,0,0,0,-3.6539,-3.6541,0,-3.6732,-3.6734,-3.6736,-3.6746,-3.6744,-3.6742,-3.674,-3.6937,-3.6944,-3.6951,0,0,0,0,0,0,0,0,0,0,0,0,0,-3.6179,-3.6185,-3.6539,-3.6541,-3.6544,-3.6732,-3.6734,-3.6737,-3.6747,-3.6744,-3.6741,-3.6739,-3.6934,-3.6943,-3.6952,0,0,0,0,0,0,0,0,0,0,0,0,0,-3.635,-3.6187,-3.6538,-3.6571,-3.6576,-3.6731,-3.6734,-3.6738,-3.6747,-3.6744,-3.6741,-3.6738,-3.6931,-3.6942,-3.6953,-3.7088,0,0,-3.6987,-3.6991,0,0,0,0,0,0,0,0,-3.634,-3.6363,-3.6564,-3.6569,-3.6575,-3.6712,-3.668,-3.6855,-3.6748,-3.6682,-3.674,-3.6736,-3.6865,-3.6881,-3.6924,-3.7097,-3.7106,-3.6988,-3.6994,-3.6999,-3.7002,0,0,0,0,0,0,0,-3.6328,-3.6355,-3.6615,-3.6567,-3.6574,-3.6576,-3.6597,-3.6713,-3.679,-3.6688,-3.6689,-3.6712,-3.6867,-3.6914,-3.6929,-3.7109,-3.6987,-3.6997,-3.7004,-3.7008,-3.7403,-3.7407,0,0,0,0,0,0,-3.631,-3.6345,-3.6609,-3.6621,-3.6447,-3.6586,-3.6609,-3.6671,-3.6789,-3.6803,-3.6714,-3.6712,-3.6897,-3.6916,-3.6936,-3.7103,-3.6999,-3.7009,-3.7015,-3.7399,-3.7404,-3.7408,0,0,0,0,0,0,-3.6302,-3.6333,-3.6601,-3.6483,-3.6518,-3.6595,-3.6666,-3.6677,-3.6724,-3.6809,-3.6822,-3.6748,-3.6895,-3.6921,-3.7051,-3.711,-3.7014,-3.7024,-3.7395,-3.7401,-3.7406,-3.7437,0,0,0,0,0,0,-3.6292,-3.6331,-3.6383,-3.6484,-3.6524,-3.6713,-3.6669,-3.6683,-3.6743,-3.6741,-3.6844,-3.6858,-3.6894,-3.7034,-3.7061,-3.7123,-3.7033,-3.739,-3.7397,-3.7404,-3.7431,-3.7443,-3.7454,0,0,0,0,0,-3.6279,-3.6383,-3.6385,-3.6417,-3.6591,-3.6716,-3.6739,-3.6778,-3.6747,-3.6801,-3.6855,-3.6855,-3.7099,-3.7047,-3.7078,-3.7144,-3.7386,-3.7395,-3.7404,-3.7426,-3.7441,-3.7453,0,0,0,0,0,0,-3.6286,-3.6397,-3.6401,-3.6541,-3.6619,-3.6718,-3.6786,-3.6793,-3.6881,-3.6875,-3.692,-3.6944,-3.7073,-3.7121,-3.7062,-3.7282,-3.7239,-3.7254,-3.7245,-3.726,-3.7271,-3.7257,-3.7042,0,0,0,0,0,-3.6304,-3.6397,-3.6489,-3.6604,-3.6643,-3.6708,-3.6764,-3.6788,-3.687,-3.6903,-3.6967,-3.7047,-3.7142,-3.7204,-3.7296,-3.7438,-3.7461,-3.7499,-3.751,-3.7519,-3.7532,-3.7612,-3.763,-3.7437,-3.7437,-3.7437,0,0,-3.6342,-3.6414,-3.647,-3.6607,-3.667,-3.6766,-3.6735,-3.6837,-3.6908,-3.6918,-3.7046,-3.7095,-3.7188,-3.7325,-3.7388,-3.7369,-3.759,-3.753,-3.7536,-3.7545,-3.7622,-3.7641,-3.7657,-3.7443,-3.7442,-3.7441,0,0,-3.646,-3.6524,-3.6627,-3.6692,-3.6788,-3.683,-3.6855,-3.6953,-3.6987,-3.7115,-3.7125,-3.721,-3.7372,-3.7438,-3.7493,-3.7637,-3.764,-3.7665,-3.7724,-3.7802,-3.7817,-3.783,-3.7883,-3.7901,-3.7677,-3.7678,-3.7678,0,-3.6496,-3.6639,-3.6679,-3.6782,-3.6842,-3.6856,-3.6961,-3.7022,-3.7143,-3.7184,-3.7161,-3.7366,-3.7429,-3.7582,-3.7617,-3.7661,-3.7691,-3.7654,-3.7811,-3.7825,-3.7839,-3.7889,-3.7909,-3.768,-3.768,-3.768,-3.7679,0,-3.6678,-3.6778,-3.685,-3.6967,-3.7036,-3.7139,-3.7195,-3.7259,-3.7277,-3.7322,-3.7453,-3.7529,-3.7637,-3.7675,-3.7693,-3.7831,-3.7816,-3.7802,-3.776,-3.7859,-3.7907,-3.7927,-3.7684,-3.7683,-3.7682,-3.7681,0,0,-3.6807,-3.6946,-3.6971,-3.7025,-3.7133,-3.7211,-3.7314,-3.7421,-3.7475,-3.7558,-3.7647,-3.7784,-3.7772,-3.7834,-3.786,-3.7927,-3.8038,-3.7905,-3.7908,-3.7928,-3.8196,-3.8207,-3.8228,-3.804,-3.8044,-3.8047,-3.8188,0,-3.6938,-3.7123,-3.7163,-3.7323,-3.7416,-3.7431,-3.7521,-3.7597,-3.7642,-3.7728,-3.7777,-3.7874,-3.7849,-3.7887,-3.7955,-3.801,-3.8092,-3.8,-3.8124,-3.8128,-3.8101,-3.8253,-3.8265,-3.8395,-3.8207,-3.821,-3.8213,0,-3.7115,-3.7203,-3.7373,-3.7469,-3.751,-3.759,-3.7691,-3.7773,-3.7859,-3.7887,-3.7957,-3.7975,-3.8084,-3.8037,-3.8188,-3.8124,-3.8177,-3.8211,-3.8217,-3.8231,-3.8177,-3.8272,-3.8437,-3.8457,-3.8243,-3.824,-3.8238,0,-3.7193,-3.7354,-3.7477,-3.7522,-3.7637,-3.7694,-3.7744,-3.7827,-3.7889,-3.7977,-3.8017,-3.8117,-3.8171,-3.8248,-3.8293,-3.8254,-3.8441,-3.8397,-3.8468,-3.8467,-3.8507,-3.8504,-3.8684,-3.8539,-3.8539,-3.8538,-3.8538,0,-3.7336,-3.7439,-3.7514,-3.7589,-3.7706,-3.775,-3.7864,-3.7914,-3.7988,-3.8074,-3.8092,-3.8172,-3.8226,-3.8314,-3.835,-3.847,-3.8495,-3.852,-3.8529,-3.852,-3.8516,-3.8555,-3.8548,-3.8544,-3.8543,-3.8542,-3.8541,0,-3.7443,-3.7497,-3.7632,-3.7729,-3.7756,-3.7838,-3.7922,-3.7996,-3.8041,-3.8149,-3.8177,-3.8248,-3.8352,-3.8405,-3.8535,-3.8559,-3.8695,-3.8697,-3.8666,-3.8669,-3.8738,-3.8731,-3.895,-3.8981,-3.8815,-3.8816,-3.8817,0,-3.7531,-3.7611,-3.7718,-3.7777,-3.7828,-3.7923,-3.7986,-3.8032,-3.8097,-3.8202,-3.8264,-3.8369,-3.8456,-3.8622,-3.8685,-3.8785,-3.879,-3.886,-3.8805,-3.8794,-3.8793,-3.8788,-3.8797,-3.887,-3.8872,-3.8873,-3.8874,0,-3.7682,-3.7705,-3.7795,-3.7895,-3.797,-3.8051,-3.813,-3.8177,-3.8237,-3.8309,-3.8416,-3.8483,-3.8616,-3.8721,-3.8825,-3.8877,-3.8886,-3.8891,-3.8913,-3.8904,-3.8883,-3.8897,-3.8693,-3.8886,-3.8884,-3.8883,-3.8883,-3.8882,-3.7783,-3.7855,-3.7942,-3.8042,-3.8107,-3.8181,-3.8256,-3.831,-3.84,-3.8513,-3.8534,-3.8648,-3.8733,-3.8874,-3.893,-3.902,-3.9005,-3.9036,-3.9044,-3.9051,-3.9055,-3.8868,-3.9039,-3.9038,-3.9038,-3.9038,-3.9038,0,-3.7936,-3.7992,-3.8084,-3.8195,-3.8274,-3.8275,-3.8364,-3.843,-3.853,-3.8608,-3.8694,-3.8817,-3.8919,-3.899,-3.9094,-3.9152,-3.9159,-3.9178,-3.9174,-3.9186,-3.9062,-3.9034,-3.9171,-3.9171,-3.9171,-3.917,-3.917,-3.917,-3.8025,-3.8147,-3.818,-3.8335,-3.8391,-3.8503,-3.8554,-3.8622,-3.8685,-3.8823,-3.8907,-3.8953,-3.9029,-3.9139,-3.9232,-3.9251,-3.9288,-3.9308,-3.9326,-3.9209,-3.9195,-3.9182,-3.9155,-3.9315,-3.9315,-3.9443,-3.9444,-3.9445]}]]